Torna al catalogo

STARLINK-3202

AttivoComunicazioniVLEO
NORAD 49742·PAYLOAD·🇺🇸 United States

Lanciato Dec 2, 2021 da Cape Canaveral Space Force Station

Loading…

Prossimi Passaggi (prossime 24 ore)

TLE

AggiornatoSource: CelesTrak SupGP

Epoca: Sep 14, 2026, 13:30 UTC

1 49742C 21115U   26257.56298611 -.00015513  00000+0 -44403-3 0  2577
2 49742  53.1599   9.2029 0001189  80.3872 100.8874 15.35394141    14

Traccia STARLINK-3202 in tempo reale con AllMySat

Download on the App Store